Content
SEND FEEDBACK

Daily
Averages
Monthly
Summary
United States of America

ACHANG BAY, GUAM


Home > North America > United States > Guam
Elevation: 30 feet     Latitude: 13 16N     Longitude: 144 45E

WEATHER
 
SELECT A DAY
Number of Records: 342,166;   Date Range: 1/1/95 - 8/12/14
 
SHARE

PRINT THIS DATA

[ ← Previous Day ]
WEATHER ALMANAC - JANUARY 11, 2013
[ Next Day → ]
[ °C ]   °F
Weather ElementAverageHighLow
Temperature76.6 °F84 °F (10:55 am)71.2 °F (12:55 am)
Dewpoint70.2 °F73.4 °F (4:08 am)64.4 °F (1:16 am)
Humidity80.7 %94 % (8:17 pm)68 % (10:55 am)
Barometer29.84 in29.89 in (10:50 pm)29.79 in (3:22 am)
Wind Speed16.8 mph21.9 mph (9:55 am)
Wind Gust27.6 mph (9:55 am)
Weather ElementAverage
Visibility9.9 mi
Wind DirectionENE (73.3 °)

Weather ElementTotal
Precipitation---
Cooling Degree Days12.6 (Base 65)
Growing Degree Days27.6 (Base 50)
Averaged from 55 records on January 11, 2013
WEATHER CONDITIONS BREAKOUT
WIND DIRECTION BREAKOUT
WEATHER BY HOUR - JANUARY 11, 2013
[ °C ]   °F
Local TimeTemperatureDewpointHumidityBarometerVisibilityWind DirectionWind SpeedGust SpeedPrecipitationEventsConditions
12:55 AM71.2 °F64.9 °F80 %29.83 in10.0 miEast (80°)15.0 mph23.0 mphMostly Cloudy
1:16 AM71.6 °F64.4 °F78 %29.82 in10.0 miEast (90°)16.1 mphScattered Clouds
1:33 AM71.6 °F66.2 °F83 %29.82 in10.0 miEast (80°)15.0 mphMostly Cloudy
1:34 AM71.6 °F66.2 °F83 %29.82 in10.0 miEast (80°)15.0 mphScattered Clouds
1:35 AM71.6 °F66.2 °F83 %29.82 in10.0 miEast (80°)16.1 mphMostly Cloudy
1:38 AM71.6 °F64.4 °F78 %29.82 in10.0 miEast (80°)16.1 mphScattered Clouds
1:40 AM71.6 °F64.4 °F78 %29.82 in10.0 miEast (80°)16.1 mphMostly Cloudy
1:54 AM71.6 °F66.2 °F83 %29.82 in10.0 miEast (90°)16.1 mphScattered Clouds
1:55 AM72.0 °F65.5 °F80 %29.82 in10.0 miEast (80°)16.1 mphScattered Clouds
2:37 AM71.6 °F66.2 °F83 %29.80 in10.0 miEast (90°)15.0 mphMostly Cloudy
2:55 AM74.1 °F67.6 °F80 %29.80 in10.0 miEast (90°)17.3 mphMostly Cloudy
3:05 AM73.4 °F66.2 °F78 %29.80 in10.0 miEast (90°)17.3 mphScattered Clouds
3:14 AM73.4 °F66.2 °F78 %29.80 in10.0 miEast (80°)15.0 mphMostly Cloudy
3:19 AM73.4 °F66.2 °F78 %29.80 in10.0 miEast (80°)17.3 mphMostly Cloudy
3:22 AM73.4 °F66.2 °F78 %29.79 in10.0 miEast (80°)15.0 mphMostly Cloudy
3:26 AM73.4 °F66.2 °F78 %29.79 in10.0 miEast (80°)16.1 mphScattered Clouds
3:55 AM73.0 °F66.7 °F81 %29.79 in10.0 miEast (80°)18.4 mphClear
4:08 AM78.8 °F73.4 °F83 %29.87 in10.0 miEast (80°)15.0 mph23.0 mphMostly Cloudy
4:55 AM78.8 °F71.6 °F78 %29.80 in10.0 miEast (80°)15.0 mph24.2 mphClear
5:55 AM77.0 °F71.6 °F83 %29.82 in10.0 miENE (70°)18.4 mphPartly Cloudy
6:55 AM78.8 °F73.4 °F83 %29.84 in10.0 miENE (70°)17.3 mphPartly Cloudy
7:55 AM73.6 °F65.5 °F76 %29.86 in10.0 miENE (70°)18.4 mphClear
8:55 AM76.5 °F65.8 °F70 %29.88 in10.0 miEast (80°)19.6 mphPartly Cloudy
9:55 AM80.6 °F69.8 °F70 %29.88 in10.0 miEast (80°)21.9 mph27.6 mphClear
10:55 AM84.0 °F72.5 °F68 %29.87 in10.0 miENE (70°)19.6 mphPartly Cloudy
11:55 AM82.8 °F71.4 °F68 %29.85 in10.0 miENE (70°)19.6 mphClear
12:55 PM84.0 °F73.4 °F70 %29.82 in10.0 miENE (70°)16.1 mph23.0 mphPartly Cloudy
1:55 PM83.5 °F71.8 °F68 %29.81 in10.0 miENE (70°)19.6 mphClear
2:55 PM84.0 °F72.7 °F69 %29.80 in10.0 miENE (70°)18.4 mphPartly Cloudy
3:46 PM82.4 °F73.4 °F74 %29.81 in10.0 miENE (60°)17.3 mphMostly Cloudy
3:55 PM81.5 °F72.3 °F74 %29.81 in10.0 miENE (60°)18.4 mphMostly Cloudy
4:03 PM82.4 °F71.6 °F70 %29.81 in10.0 miENE (70°)16.1 mphMostly Cloudy
4:55 PM81.0 °F72.9 °F76 %29.83 in10.0 miNE (50°)17.3 mphPartly Cloudy
5:55 PM78.8 °F72.3 °F80 %29.83 in10.0 miENE (70°)15.0 mphMostly Cloudy
6:55 PM78.3 °F72.9 °F83 %29.85 in10.0 miENE (60°)16.1 mphPartly Cloudy
7:10 PM77.0 °F71.6 °F83 %29.85 in9.0 miENE (60°)16.1 mph26.5 mphRainLight Rain
7:19 PM77.0 °F73.4 °F89 %29.86 in10.0 miENE (60°)17.3 mphScattered Clouds
7:34 PM77.0 °F73.4 °F89 %29.86 in10.0 miENE (60°)16.1 mphMostly Cloudy
7:39 PM77.0 °F71.6 °F83 %29.86 in10.0 miENE (60°)17.3 mphScattered Clouds
7:54 PM77.0 °F71.6 °F83 %29.86 in10.0 miENE (60°)18.4 mphMostly Cloudy
7:55 PM77.7 °F72.5 °F84 %29.86 in10.0 miENE (60°)18.4 mph0.00 inMostly Cloudy
7:56 PM77.0 °F73.4 °F89 %29.86 in10.0 miENE (60°)18.4 mphScattered Clouds
8:02 PM77.0 °F71.6 °F83 %29.86 in10.0 miEast (80°)20.7 mphMostly Cloudy
8:04 PM77.0 °F71.6 °F83 %29.86 in9.0 miEast (80°)18.4 mphLight Drizzle
8:16 PM75.2 °F71.6 °F89 %29.86 in10.0 miENE (60°)13.8 mphMostly Cloudy
8:17 PM75.2 °F73.4 °F94 %29.86 in10.0 miENE (60°)13.8 mphScattered Clouds
8:55 PM77.0 °F71.4 °F83 %29.86 in10.0 miENE (60°)15.0 mph23.0 mph0.00 inPartly Cloudy
9:55 PM77.4 °F72.0 °F83 %29.87 in10.0 miENE (70°)15.0 mphPartly Cloudy
10:50 PM77.0 °F73.4 °F89 %29.89 in8.0 miENE (60°)20.7 mph25.3 mphRainRain
10:55 PM77.0 °F73.4 °F89 %29.88 in6.0 miENE (70°)13.8 mph25.3 mph0.00 inRainLight Rain
11:04 PM77.0 °F73.4 °F89 %29.88 in10.0 miEast (80°)16.1 mphScattered Clouds
11:12 PM77.0 °F73.4 °F89 %29.89 in10.0 miEast (90°)16.1 mphRainLight Rain
11:21 PM77.0 °F73.4 °F89 %29.89 in10.0 miEast (90°)15.0 mphMostly Cloudy
11:24 PM77.0 °F73.4 °F89 %29.89 in10.0 miEast (80°)16.1 mphScattered Clouds
11:55 PM77.0 °F73.4 °F89 %29.89 in10.0 miENE (70°)16.1 mph0.00 inScattered Clouds
Hourly data recorded from PGUA, located miles away from Achang Bay, Guam







STORIES FROM OUR PARTNERS